EHI
0 0 0 1 1 1 0 0 1 2 3 2 1 1 2 3 4 5 5 4 4 3 2 3 3 2 4 6 6 4 3 4 3 1 0 0 0 0 0 0 0 0 1
0 0 0 0 0 0 0 0 0 1 2 2 1 1 2 3 3 4 4 4 4 3 2 2 2 2 4 6 6 4 2 2 1 1 0 0 0 0 0 0 0 1 2
0 0 0 0 0 0 0 0 0 1 2 3 2 1 1 3 3 3 2 2 2 2 2 2 1 1 4 5 5 4 3 1 1 1 1 0 0 0 0 0 0 1 3
0 0 0 0 0 0 0 0 0 0 1 1 1 0 1 2 2 1 1 1 1 1 1 1 0 1 3 4 4 4 3 3 2 2 1 0 0 0 0 0 0 2 4
0 0 0 0 0 0 0 0 0 0 0 0 0 0 0 1 1 1 0 0 0 0 0 0 0 0 1 3 4 4 3 3 2 1 0 0 0 1 1 2 3 4 5
0 0 1 1 1 0 0 0 0 0 0 0 0 0 0 0 0 0 0 0 0 0 0 0 0 0 0 2 4 5 4 2 1 0 0 0 0 1 2 3 5 6 5
0 0 1 2 2 1 0 0 0 0 0 1 1 0 0 0 0 0 0 0 0 0 0 0 0 0 1 3 5 5 4 1 0 0 0 0 0 0 1 3 5 5 4
0 0 1 2 3 2 1 0 0 0 1 2 1 0 0 0 0 0 1 0 0 0 0 0 0 0 1 3 5 4 2 1 0 0 0 0 1 1 1 2 2 2 2
0 0 1 2 2 2 1 0 0 0 1 1 1 0 0 0 0 0 0 0 0 0 0 0 0 0 1 3 4 3 1 0 0 0 0 0 1 2 2 2 1 1 1
0 0 0 1 1 1 0 0 0 0 0 0 0 0 0 0 0 0 0 0 0 0 0 0 0 0 1 2 2 1 1 0 0 0 0 0 1 2 2 2 1 0 0
0 0 0 0 0 0 0 0 0 1 0 0 0 0 0 0 0 0 0 0 0 0 0 0 0 0 0 1 1 0 0 0 0 0 0 0 1 1 0 1 1 0 0
0 0 0 0 0 0 0 0 0 0 0 0 0 0 0 0 0 0 0 0 0 0 0 0 0 0 0 0 0 0 0 0 0 0 0 0 0 0 0 0 0 0 0
1 0 0 0 0 0 0 0 0 0 0 0 0 0 0 0 0 0 0 0 0 0 0 0 0 0 0 0 0 0 0 0 0 0 0 0 0 0 0 0 0 0 0
2 1 0 0 0 0 0 0 0 0 0 0 0 0 0 0 0 0 0 0 0 0 0 0 0 0 0 0 0 0 0 0 0 0 0 0 0 1 0 0 0 0 0
2 1 0 0 0 0 0 0 0 0 0 0 0 0 0 0 0 0 0 0 0 0 0 0 0 0 0 0 0 0 0 0 0 0 0 0 0 0 0 0 0 0 0
2 2 1 0 0 0 0 0 0 0 0 0 0 0 0 0 0 0 0 0 0 0 0 0 0 0 0 0 0 0 0 0 0 0 0 0 0 0 0 0 0 0 0
2 2 2 0 0 0 0 0 0 0 0 0 0 0 0 0 0 0 0 0 0 0 0 0 0 0 0 0 0 0 0 0 0 0 0 0 0 0 0 0 0 0 0
1 1 1 0 0 0 0 0 0 0 0 0 0 0 0 0 0 0 0 0 0 0 0 0 0 0 0 0 0 0 0 0 0 0 0 0 0 0 0 0 0 0 0
0 0 0 0 0 0 0 0 0 0 0 0 0 0 0 0 0 0 0 0 0 0 0 0 0 0 0 0 0 0 0 0 0 0 0 0 0 0 0 0 0 0 0
0 0 0 0 0 0 0 0 0 0 0 0 0 0 0 0 0 0 0 0 0 0 0 0 0 0 0 0 0 0 0 0 0 0 0 0 0 0 0 0 0 0 0
1 1 2 1 0 0 0 0 0 0 0 0 0 0 0 0 0 0 0 0 0 0 0 0 0 0 0 0 0 0 0 0 0 0 0 0 0 0 0 0 0 0 0
2 3 3 2 1 0 0 0 0 0 0 0 0 0 0 0 0 0 0 0 0 0 0 0 0 0 0 0 0 0 0 0 0 0 0 0 0 0 0 0 0 0 0
3 3 3 2 1 0 1 1 1 0 0 0 0 0 0 0 0 0 0 0 0 0 0 0 0 0 0 0 0 0 0 0 0 0 0 0 0 0 0 0 0 0 0
1 2 2 1 0 1 2 3 2 1 0 0 0 0 0 0 1 1 1 0 0 0 0 0 0 0 0 0 0 0 0 0 0 0 0 0 0 0 0 0 0 0 0
1 2 2 1 1 2 3 4 2 1 0 0 0 0 0 1 2 2 2 1 1 2 1 1 0 0 0 0 0 0 0 0 0 0 0 0 0 0 0 0 0 0 0
2 2 2 1 2 3 3 4 2 1 0 0 0 0 1 2 3 3 3 2 2 3 2 2 1 0 0 0 0 0 0 0 0 0 0 0 0 0 0 0 0 0 0
Wind_Speed
1 1 6 8 8 8 9 9 9 9 10 10 10 10 10 11 11 12 11 11 10 10 9 10 10 10 10 10 10 9 9 9 9 8 8 8 7 7 8 8 7 5 8
4 2 7 8 8 8 8 9 9 10 10 9 10 10 11 11 12 12 11 11 11 11 11 10 10 11 11 11 10 9 8 8 8 8 7 6 7 7 7 7 6 4 7
5 3 5 8 8 9 9 8 9 9 9 9 10 10 11 11 11 11 11 11 11 11 11 11 10 11 11 10 10 9 9 8 8 7 6 3 4 6 6 6 6 6 6
6 4 5 8 8 9 9 9 9 9 9 9 10 10 11 11 11 11 11 11 11 11 10 10 10 10 10 10 10 9 9 8 8 7 3 3 3 6 6 5 5 6 6
6 4 5 9 9 9 9 9 9 9 9 9 10 10 11 11 11 10 11 11 10 10 10 9 9 10 10 10 9 9 9 9 8 5 3 2 2 5 6 5 5 5 6
6 4 6 9 9 9 9 9 9 9 9 9 10 10 10 10 10 10 10 10 9 9 9 9 9 9 9 9 8 9 9 9 7 3 2 2 2 5 6 6 5 6 6
6 4 6 10 9 9 9 8 9 9 9 9 10 10 10 10 10 9 9 9 9 9 9 9 8 8 8 8 7 8 8 8 4 3 2 2 3 6 7 6 6 6 7
7 5 5 9 9 9 8 8 8 8 9 9 10 10 9 10 10 9 9 9 9 9 9 8 8 8 8 8 8 8 8 7 5 3 2 2 5 7 7 7 7 6 6
7 5 4 4 5 7 8 8 8 8 8 8 9 9 9 9 9 9 9 9 9 9 9 8 8 8 7 8 8 9 9 8 4 2 3 2 5 7 7 7 7 6 6
6 5 4 3 3 2 3 6 7 7 8 8 8 8 8 8 8 9 8 8 9 9 9 8 8 8 8 8 9 9 9 7 4 3 2 3 6 7 7 8 7 7 7
5 4 4 4 3 2 2 4 4 6 6 6 6 7 6 3 3 4 6 8 8 9 9 9 9 9 9 9 9 9 7 3 4 3 2 6 8 8 8 8 8 8 8
6 5 4 4 3 3 2 2 1 2 2 2 2 3 2 2 2 3 4 6 7 7 8 8 8 8 7 4 6 7 4 4 3 2 3 8 8 8 9 9 9 8 8
6 6 5 4 4 3 2 2 1 1 1 1 2 2 2 2 2 2 2 2 3 4 3 5 5 4 4 3 3 4 4 3 2 2 3 7 8 8 8 9 8 8 8
6 6 6 5 4 3 3 2 2 2 1 1 1 2 2 2 2 1 1 2 2 2 2 2 2 3 4 4 4 4 4 3 2 2 3 6 7 7 8 8 7 7 8
6 6 6 6 5 4 3 2 2 2 2 2 2 2 3 3 2 1 1 1 1 1 2 2 3 3 3 3 4 4 4 3 3 2 2 5 6 7 7 7 7 7 7
6 6 6 6 6 5 3 3 2 2 2 2 2 2 3 3 2 2 2 1 1 1 2 2 3 3 3 3 3 4 3 3 3 2 2 3 5 6 6 6 6 7 7
7 7 7 7 6 5 4 4 3 2 2 2 1 2 3 3 3 3 2 2 1 2 3 3 3 3 3 3 3 2 2 2 2 2 2 2 2 4 5 5 5 6 5
6 6 6 7 6 5 4 4 3 2 2 2 1 2 3 3 4 3 2 2 2 2 3 3 3 3 3 2 2 2 2 2 2 2 2 2 1 2 3 3 4 4 4
7 7 7 6 6 5 5 4 3 3 3 2 2 2 2 3 4 3 3 2 2 3 2 3 3 3 3 2 2 2 2 1 1 2 2 2 2 1 1 2 3 4 3
7 7 6 6 6 5 4 3 2 3 2 2 2 2 3 3 4 4 3 3 3 3 3 3 3 2 2 2 2 3 2 2 2 2 2 2 2 2 2 2 2 2 3
6 6 6 6 5 4 3 3 3 2 1 1 1 2 3 3 4 4 3 2 3 3 3 3 3 3 2 2 3 3 3 3 3 2 2 2 2 1 1 2 1 1 1
6 6 6 6 5 5 4 4 3 3 2 2 1 2 2 3 3 3 4 3 3 3 3 3 3 2 1 1 2 2 2 3 3 3 2 1 2 2 2 2 2 2 1
6 7 7 6 6 5 5 3 3 3 2 2 1 1 1 3 3 3 4 3 3 3 3 2 3 3 1 1 1 3 2 1 2 3 3 2 2 1 1 1 2 1 2
7 7 7 7 6 5 5 6 6 4 3 3 2 2 2 2 3 3 3 3 3 3 3 2 2 2 3 1 1 1 2 3 2 1 3 2 2 1 1 1 1 1 1
6 5 5 6 6 5 5 6 6 4 3 2 2 3 2 1 2 3 3 3 3 2 2 2 2 2 2 2 1 1 2 2 2 2 1 2 2 2 1 1 1 1 1
5 4 4 5 5 4 5 5 6 7 5 4 3 3 2 1 1 2 3 3 3 3 3 3 3 3 2 2 2 2 2 2 1 2 1 1 1 2 2 1 1 1 1
Wind_Direction
171 193 105 101 93 87 85 82 80 78 78 79 79 79 78 76 83 92 92 91 89 90 95 98 97 97 98 101 101 103 106 110 110 112 114 112 113 116 117 119 120 121 128
154 136 109 105 100 93 89 87 84 80 79 82 83 82 81 81 82 85 88 87 86 88 92 93 93 93 94 97 97 98 102 108 108 108 108 112 119 123 120 123 126 132 133
128 119 112 108 104 98 94 91 88 85 82 83 85 84 83 84 86 87 87 86 85 86 89 90 92 93 94 93 93 93 96 97 96 98 99 99 115 126 125 125 131 133 137
129 123 116 112 107 103 99 94 88 87 87 89 88 88 85 86 88 89 87 86 85 84 87 89 90 92 91 91 89 88 88 91 92 91 85 84 98 121 121 117 125 135 139
129 126 128 119 112 107 104 98 93 90 89 92 94 91 89 88 88 89 88 87 86 86 87 89 89 91 91 89 86 84 82 83 85 77 73 76 91 119 117 110 115 135 140
125 129 135 125 118 113 108 104 98 95 92 93 95 95 91 90 91 91 91 88 85 85 85 88 88 91 92 89 86 82 80 78 70 65 66 71 99 113 112 105 104 127 136
132 134 135 129 125 120 115 110 104 100 95 94 96 98 94 91 92 95 95 92 89 88 87 87 87 88 89 88 82 78 78 81 74 69 70 74 92 102 104 101 101 104 118
140 142 135 134 131 127 121 113 108 102 99 98 97 99 97 93 93 96 97 93 90 94 92 89 83 82 83 82 77 75 73 78 79 78 71 84 99 96 96 93 93 96 104
137 135 130 135 134 132 127 120 116 110 105 103 100 101 100 96 95 96 98 94 93 97 93 86 81 81 79 76 72 69 69 69 71 75 84 83 103 99 98 96 94 95 103
130 138 139 135 130 121 123 128 127 120 111 106 103 101 101 100 98 94 91 96 95 93 90 84 79 79 75 70 66 66 66 60 68 72 66 90 97 98 103 104 103 96 92
140 144 144 147 144 141 144 139 129 118 109 104 101 103 99 81 79 86 88 90 88 86 81 76 74 72 67 63 59 60 62 54 68 65 66 90 90 91 96 101 102 99 93
153 160 157 155 161 159 149 118 98 94 93 87 92 95 91 89 76 84 84 88 86 80 72 69 65 62 56 52 55 58 58 56 61 61 78 91 90 93 95 96 98 96 94
159 157 157 159 157 151 135 129 115 96 96 96 109 114 105 92 73 63 60 63 67 66 53 53 51 50 54 56 54 58 60 59 50 46 72 87 91 93 96 94 90 93 94
152 156 158 156 151 153 142 135 129 122 122 119 125 121 112 100 89 84 76 66 61 58 57 52 56 55 63 67 69 69 66 64 58 45 60 74 86 90 94 94 88 93 91
152 155 158 157 153 151 136 134 120 120 127 126 119 123 122 120 120 108 94 83 78 72 77 68 71 71 70 70 71 75 78 74 69 57 49 65 76 87 92 94 91 87 84
164 158 152 152 151 143 134 131 131 124 113 104 113 122 124 124 127 118 101 88 83 85 92 93 84 81 73 67 63 67 74 73 72 68 54 59 73 82 86 96 95 88 83
169 160 154 152 146 140 137 136 130 119 109 105 110 113 118 120 122 117 109 99 91 97 94 85 75 75 74 68 60 57 67 68 78 76 65 51 56 71 86 94 98 93 90
158 155 155 150 143 142 140 133 127 121 112 109 109 110 115 118 119 111 106 104 99 91 92 95 86 80 68 64 59 43 51 56 64 71 66 60 55 57 66 81 90 99 98
159 156 151 148 148 150 142 133 129 117 112 115 110 112 120 116 115 111 105 105 100 89 84 96 85 97 92 76 72 58 40 43 48 69 66 62 65 75 62 63 71 85 95
156 153 149 143 148 146 131 115 100 91 100 105 112 122 122 118 113 109 103 93 94 90 79 83 88 76 89 87 76 52 27 20 32 54 61 54 55 66 64 54 46 58 68
153 152 151 147 158 148 138 137 135 137 133 113 118 118 119 120 118 110 107 100 102 105 114 110 98 84 64 68 70 37 14 17 22 26 42 56 50 41 56 58 48 42 34
166 164 159 162 161 161 163 160 156 149 145 137 119 109 123 123 123 123 123 121 114 108 102 102 103 97 60 65 105 87 25 2 360 6 13 47 45 30 37 52 63 56 44
170 173 171 170 166 167 158 132 108 81 66 64 78 99 124 129 123 124 134 129 125 124 133 135 129 122 118 16 77 128 132 204 313 342 356 18 24 32 17 33 53 45 51
186 181 170 165 165 166 157 147 146 148 160 184 172 157 146 135 132 131 132 130 131 131 141 156 136 132 131 133 19 56 132 153 146 325 334 350 1 22 5 32 49 37 36
179 175 170 164 165 167 166 163 159 160 173 159 140 138 139 144 144 142 138 133 135 139 145 138 126 122 129 141 146 121 78 63 91 136 273 325 348 341 344 353 13 22 16
169 167 163 162 166 170 167 167 166 165 162 150 154 158 162 160 149 147 143 141 147 148 149 144 136 127 121 120 125 129 138 135 157 139 165 273 304 308 324 340 5 11 349